Galesburg, IL

11:54 PM CDT on August 25, 2019 (GMT -0500)
Galesburg Municipal

Weather History for KGBG - May, 2019

Change the Weather History Date:

Saturday, May 18, 2019

  Actual Average Record
Temperature  
Mean Temperature 64 °F -  
Max Temperature 76 °F 75 °F 92 °F (1964)
Min Temperature 54 °F 53 °F 33 °F (2002)
Growing Degree Days 14 (Base 50)    
Moisture  
Dew Point 60 °F    
Average Humidity 86    
Maximum Humidity 99    
Minimum Humidity 65    
Precipitation  
Precipitation 0.60 in - - ()
Sea Level Pressure  
Sea Level Pressure 29.73 in    
Wind  
Wind Speed 9 mph (ESE)    
Max Wind Speed 20 mph    
Max Gust Speed 31 mph    
Visibility 10 miles    
Events Rain , Thunderstorm    
Averages and records for this station are not official NWS values.
T = Trace of Precipitation, MM = Missing Value Source: NWS Daily Summary

Daily Weather History Graph

Daily Weather History Graph

Search for Another Location

Airport or City:

Astronomy

May. 18, 2019 Rise Set
Actual Time 5:41 AM CDT 8:15 PM CDT
Civil Twilight 5:10 AM CDT 8:46 PM CDT
Nautical Twilight 4:30 AM CDT 9:26 PM CDT
Astronomical Twilight 3:46 AM CDT 10:10 PM CDT
Moon 8:10 PM CDT (5/18) 5:49 AM CDT (5/18)
Length of Visible Light 15h 36m
Length of Day
14h 33m
Full, 100% of the Moon is Illuminated
May 18
Full
May 18
Full
May 26
Last Quarter
Jun 3
New
Jun 10
First Quarter

Hourly Weather History & Observations

Time (CDT) Temp. Dew Point Humidity Pressure Visibility Wind Dir Wind Speed Gust Speed Precip Events Conditions
12:15 AM 56.3 °F 52.7 °F 88% 29.83 in 10.0 mi East 9.2 mph - N/A   Scattered Clouds
12:35 AM 55.9 °F 52.3 °F 88% 29.83 in 10.0 mi East 9.2 mph - N/A   Scattered Clouds
12:55 AM 55.4 °F 52.0 °F 88% 29.82 in 10.0 mi East 8.1 mph 17.3 mph N/A   Scattered Clouds
1:15 AM 54.9 °F 51.4 °F 88% 29.81 in 10.0 mi East 9.2 mph 17.3 mph N/A   Scattered Clouds
1:35 AM 54.5 °F 51.4 °F 89% 29.81 in 10.0 mi East 8.1 mph - N/A   Clear
1:55 AM 54.5 °F 51.6 °F 90% 29.81 in 10.0 mi East 8.1 mph - N/A   Scattered Clouds
2:15 AM 54.5 °F 51.4 °F 89% 29.80 in 10.0 mi East 8.1 mph - N/A   Scattered Clouds
2:35 AM 54.3 °F 51.4 °F 90% 29.80 in 10.0 mi East 8.1 mph - N/A   Scattered Clouds
2:55 AM 54.5 °F 51.8 °F 91% 29.80 in 10.0 mi East 5.8 mph - N/A   Mostly Cloudy
3:15 AM 54.7 °F 51.8 °F 90% 29.81 in 10.0 mi East 4.6 mph - N/A   Overcast
3:35 AM 54.7 °F 51.8 °F 90% 29.81 in 10.0 mi East 4.6 mph - N/A   Overcast
3:55 AM 54.5 °F 51.8 °F 91% 29.80 in 10.0 mi East 5.8 mph - N/A   Overcast
4:15 AM 54.5 °F 52.0 °F 91% 29.80 in 10.0 mi ESE 5.8 mph - N/A   Overcast
4:35 AM 54.3 °F 52.0 °F 92% 29.79 in 10.0 mi ESE 5.8 mph - N/A   Scattered Clouds
4:55 AM 54.5 °F 52.3 °F 92% 29.79 in 10.0 mi ESE 5.8 mph - N/A   Clear
5:15 AM 54.5 °F 52.5 °F 93% 29.79 in 10.0 mi East 6.9 mph - N/A   Clear
5:35 AM 54.7 °F 52.7 °F 93% 29.79 in 10.0 mi East 6.9 mph - N/A   Clear
5:55 AM 54.7 °F 52.7 °F 93% 29.80 in 7.0 mi ESE 6.9 mph - N/A   Clear
6:15 AM 55.6 °F 54.5 °F 96% 29.80 in 7.0 mi ESE 6.9 mph - N/A   Clear
6:35 AM 57.4 °F 55.4 °F 93% 29.80 in 10.0 mi ESE 6.9 mph - N/A   Clear
6:55 AM 59.0 °F 55.8 °F 89% 29.79 in 10.0 mi ESE 8.1 mph - N/A   Clear
7:15 AM 60.6 °F 56.7 °F 87% 29.78 in 10.0 mi ESE 5.8 mph - N/A   Clear
7:35 AM 62.6 °F 58.3 °F 86% 29.77 in 10.0 mi ESE 5.8 mph - N/A   Clear
7:55 AM 65.3 °F 59.9 °F 83% 29.76 in 10.0 mi ESE 5.8 mph - N/A   Clear
8:15 AM 67.8 °F 60.8 °F 78% 29.75 in 10.0 mi ESE 8.1 mph - N/A Thunderstorm Clear
8:35 AM 69.6 °F 61.7 °F 76% 29.75 in 10.0 mi East 10.4 mph 16.1 mph N/A   Clear
8:55 AM 71.8 °F 62.6 °F 73% 29.76 in 10.0 mi ESE 10.4 mph 17.3 mph N/A Thunderstorm Scattered Clouds
9:15 AM 72.5 °F 61.9 °F 69% 29.76 in 10.0 mi ESE 10.4 mph 18.4 mph N/A   Mostly Cloudy
9:35 AM 75.4 °F 63.1 °F 66% 29.75 in 10.0 mi SSW 10.4 mph 16.1 mph N/A Thunderstorm Thunderstorm
9:55 AM 75.0 °F 62.4 °F 65% 29.75 in 10.0 mi WSW 12.7 mph 17.3 mph N/A Thunderstorm Thunderstorm
10:15 AM 67.6 °F 64.6 °F 90% 29.79 in 2.0 mi SW 12.7 mph 20.7 mph 0.18 in Rain , Thunderstorm Heavy Thunderstorms and Rain
10:35 AM 67.5 °F 66.4 °F 96% 29.79 in 5.0 mi SW 12.7 mph 17.3 mph 0.37 in Rain , Thunderstorm Thunderstorms and Rain
10:55 AM 67.5 °F 66.2 °F 96% 29.78 in 10.0 mi WSW 8.1 mph - 0.37 in Rain , Thunderstorm Light Thunderstorms and Rain
11:15 AM 67.8 °F 65.7 °F 93% 29.79 in 10.0 mi SW 9.2 mph - N/A Thunderstorm Unknown
11:35 AM 67.3 °F 64.4 °F 90% 29.78 in 10.0 mi WSW 5.8 mph - 0.03 in Rain , Thunderstorm Rain
11:55 AM 67.1 °F 64.8 °F 92% 29.77 in 7.0 mi WSW 3.5 mph - 0.05 in Rain , Thunderstorm Thunderstorms and Rain
12:15 PM 66.7 °F 65.8 °F 97% 29.75 in 7.0 mi ESE 5.8 mph - 0.03 in Rain Heavy Rain
12:35 PM 66.7 °F 66.2 °F 98% 29.74 in 4.0 mi ESE 9.2 mph - 0.09 in Rain Heavy Rain
12:55 PM 67.1 °F 66.6 °F 98% 29.70 in 5.0 mi ESE 11.5 mph 18.4 mph 0.14 in Rain Rain
1:15 PM 67.6 °F 67.3 °F 99% 29.69 in 10.0 mi ESE 15.0 mph 24.2 mph N/A Rain , Thunderstorm Light Thunderstorms and Rain
1:35 PM 67.3 °F 66.4 °F 97% 29.71 in 10.0 mi East 13.8 mph 20.7 mph N/A Thunderstorm Unknown
1:55 PM 67.3 °F 65.7 °F 95% 29.72 in 10.0 mi ESE 15.0 mph 19.6 mph N/A Rain , Thunderstorm Light Thunderstorms and Rain
2:15 PM 67.1 °F 66.4 °F 98% 29.70 in 10.0 mi ESE 13.8 mph 20.7 mph N/A   Light Drizzle
2:35 PM 67.1 °F 66.4 °F 98% 29.71 in 10.0 mi ESE 10.4 mph 16.1 mph N/A Rain Light Rain
2:55 PM 68.0 °F 67.1 °F 97% 29.71 in 10.0 mi SSW 19.6 mph 24.2 mph 0.01 in Rain , Thunderstorm Thunderstorms and Rain
3:15 PM 68.0 °F 65.8 °F 93% 29.72 in 10.0 mi WSW 13.8 mph 21.9 mph N/A Rain Light Rain
3:35 PM 68.0 °F 64.9 °F 90% 29.70 in 10.0 mi South 12.7 mph - N/A   Light Drizzle
3:55 PM 68.0 °F 63.9 °F 87% 29.67 in 10.0 mi SE 18.4 mph 24.2 mph N/A Rain , Thunderstorm Light Thunderstorms and Rain
4:15 PM 68.9 °F 63.5 °F 83% 29.67 in 10.0 mi SSE 19.6 mph 31.1 mph 0.01 in Rain Rain
4:35 PM 69.4 °F 64.2 °F 83% 29.67 in 10.0 mi East 17.3 mph 25.3 mph 0.02 in Rain Light Rain
4:55 PM 70.9 °F 64.0 °F 79% 29.66 in 10.0 mi East 17.3 mph 24.2 mph 0.02 in Thunderstorm Thunderstorm
5:15 PM 72.3 °F 63.9 °F 75% 29.67 in 10.0 mi ESE 18.4 mph 29.9 mph N/A   Overcast
5:35 PM 72.0 °F 63.9 °F 76% 29.68 in 10.0 mi ESE 16.1 mph 24.2 mph N/A Rain Light Rain
5:55 PM 70.9 °F 63.7 °F 78% 29.67 in 10.0 mi ESE 13.8 mph 20.7 mph N/A Rain Light Rain
6:15 PM 70.7 °F 63.5 °F 78% 29.67 in 10.0 mi ESE 6.9 mph - N/A   Overcast
6:35 PM 71.1 °F 63.5 °F 77% 29.67 in 10.0 mi ESE 5.8 mph - N/A   Overcast
6:55 PM 72.1 °F 63.1 °F 73% 29.67 in 10.0 mi ESE 6.9 mph - N/A   Overcast
7:15 PM 71.8 °F 63.1 °F 74% 29.64 in 10.0 mi ESE 8.1 mph - N/A   Mostly Cloudy
7:35 PM 70.9 °F 63.5 °F 77% 29.64 in 10.0 mi ESE 8.1 mph - N/A   Clear
7:55 PM 70.9 °F 63.5 °F 77% 29.64 in 10.0 mi ESE 10.4 mph 16.1 mph N/A   Clear
8:15 PM 70.9 °F 63.7 °F 78% 29.65 in 10.0 mi ESE 8.1 mph - N/A   Clear
8:35 PM 70.7 °F 63.7 °F 78% 29.65 in 10.0 mi ESE 8.1 mph - N/A   Clear
8:55 PM 70.7 °F 63.9 °F 79% 29.63 in 10.0 mi ESE 5.8 mph - N/A   Scattered Clouds
9:15 PM 70.5 °F 63.5 °F 78% 29.63 in 10.0 mi ESE 8.1 mph - N/A   Mostly Cloudy
9:35 PM 71.8 °F 61.7 °F 70% 29.64 in 10.0 mi ESE 8.1 mph - N/A   Overcast
9:55 PM 71.6 °F 60.8 °F 69% 29.66 in 10.0 mi WSW 15.0 mph 18.4 mph N/A Rain Rain
10:15 PM 67.5 °F 61.9 °F 82% 29.65 in 10.0 mi SW 6.9 mph - 0.01 in Rain Light Rain
10:35 PM 67.1 °F 61.7 °F 83% 29.63 in 10.0 mi ESE 4.6 mph - 0.01 in   Mostly Cloudy
10:55 PM 67.1 °F 61.7 °F 83% 29.62 in 10.0 mi ESE 5.8 mph - 0.01 in   Scattered Clouds
11:15 PM 66.9 °F 61.3 °F 82% 29.61 in 10.0 mi ESE 3.5 mph - N/A   Scattered Clouds
11:35 PM 67.1 °F 61.2 °F 81% 29.60 in 10.0 mi ESE 4.6 mph - N/A   Scattered Clouds
11:55 PM 66.6 °F 61.3 °F 83% 29.60 in 10.0 mi ESE 4.6 mph - N/A   Mostly Cloudy